Probability
0 0 0 0 0 0 0 0 0 0 0 0 1 1 1 0 1 2 1 0 0 0 0 0 0 0 0 0 0 0 0 0 0 0 0 0 0 0 0 0 0 0 0
0 0 0 0 0 0 0 0 0 0 0 0 0 0 0 0 1 1 1 0 0 0 0 0 0 0 0 0 0 0 0 0 0 0 0 0 0 0 0 0 0 0 0
0 0 0 0 0 0 0 0 0 0 0 0 0 0 0 0 1 1 0 0 0 0 0 0 0 0 0 0 0 0 0 0 0 0 0 0 0 0 0 0 0 0 0
0 0 0 0 0 0 0 0 0 0 0 0 0 0 0 0 0 0 0 0 0 0 0 0 0 0 0 0 1 1 1 0 1 0 0 0 0 0 1 0 0 0 0
0 0 0 0 0 0 0 0 0 0 0 0 0 0 0 0 0 0 0 0 0 0 0 0 0 0 0 0 1 2 1 0 0 0 0 0 0 0 0 0 0 0 0
0 0 0 0 0 0 0 0 0 0 0 0 0 0 0 0 0 0 0 0 0 0 0 0 0 0 0 0 1 1 1 0 0 0 0 0 0 0 0 0 0 0 0
0 0 0 0 0 0 0 0 0 0 0 0 0 0 0 0 0 0 0 0 0 0 0 0 0 0 0 0 0 0 0 0 0 0 0 0 0 0 0 0 0 0 0
0 0 0 0 0 0 0 0 0 0 0 0 0 0 0 0 0 0 0 0 0 1 1 1 0 0 0 0 0 0 0 1 0 0 0 1 1 1 0 0 0 0 0
0 0 0 0 0 0 0 0 0 0 0 0 0 0 0 0 0 0 0 0 0 1 2 1 0 0 0 0 0 0 0 0 0 0 1 2 2 2 1 0 0 0 0
0 0 0 0 0 0 0 0 0 0 0 0 0 0 0 0 0 0 0 0 0 1 2 1 0 0 0 1 1 0 0 0 1 1 1 1 2 3 2 0 0 0 0
0 0 0 0 0 0 0 0 0 0 0 0 0 0 0 0 0 0 0 0 0 1 2 1 0 0 1 2 2 1 0 1 2 2 1 1 1 2 2 1 0 0 0
0 0 0 0 0 0 0 0 0 0 0 0 0 0 0 0 0 0 0 0 0 1 1 1 1 1 2 3 4 2 0 1 2 3 2 2 1 2 2 1 0 0 0
0 0 0 0 0 0 0 0 0 0 0 0 0 0 0 0 0 0 0 0 0 0 0 0 1 2 4 5 4 1 0 0 1 2 2 1 1 2 2 1 1 1 1
0 0 0 0 0 0 0 0 0 0 0 0 0 0 0 0 0 0 0 0 0 0 0 0 0 2 4 5 3 1 0 0 0 1 1 0 1 1 2 2 1 1 1
0 0 0 0 0 0 0 0 0 0 0 0 0 0 0 0 0 0 0 0 0 0 0 0 0 1 2 3 2 1 1 1 0 0 0 0 0 0 1 1 1 0 1
0 0 0 0 0 0 0 0 0 0 0 0 0 0 0 0 0 0 0 0 0 0 0 0 0 0 1 1 1 1 1 1 0 0 0 0 0 0 0 0 0 0 0
0 0 0 0 0 0 0 0 0 0 0 0 0 0 0 0 0 0 0 0 0 0 0 0 0 0 0 0 0 0 0 0 0 0 0 0 0 0 0 0 0 0 0
0 0 0 0 0 0 0 0 0 0 0 0 0 0 0 0 0 0 0 0 0 0 0 0 0 0 0 0 0 0 0 0 0 0 0 0 0 0 0 0 0 0 0
0 0 0 0 0 0 0 0 0 0 0 0 0 0 0 0 0 0 0 0 0 0 0 0 0 0 0 0 0 0 0 0 0 0 0 0 0 0 0 0 0 0 0
0 0 0 0 0 0 0 0 0 0 0 0 0 0 0 0 0 0 0 0 0 0 0 0 0 0 0 0 0 0 0 0 0 0 0 0 0 0 0 0 0 0 0
0 0 0 0 0 0 0 0 0 0 0 0 0 0 0 0 0 0 0 0 0 0 0 0 0 0 0 0 0 0 0 0 0 0 0 0 0 0 0 0 0 0 0
0 0 0 0 0 0 0 0 0 0 0 0 0 0 0 0 0 0 0 0 0 0 0 0 0 0 0 0 0 0 0 0 0 0 0 0 0 0 0 0 0 0 0
0 0 0 0 0 0 0 0 0 0 0 0 0 0 0 0 0 0 0 0 0 0 0 0 0 0 0 0 0 0 0 0 0 0 0 0 0 0 0 0 0 0 0
0 0 0 0 0 0 0 0 0 0 0 0 0 0 0 0 0 0 0 0 0 0 0 0 0 0 0 0 0 0 0 0 0 0 0 0 0 0 0 0 0 0 0
0 0 0 0 0 0 0 0 0 0 0 0 0 0 0 0 0 0 0 0 0 0 0 0 0 0 0 0 0 0 0 0 0 0 0 0 0 0 0 0 0 0 0
0 0 0 0 0 0 0 0 0 0 0 0 0 0 0 0 0 0 0 0 0 0 0 0 0 0 0 0 0 0 0 0 0 0 0 0 0 0 0 0 0 0 0
Wind_Speed
2 3 2 1 2 1 1 1 3 3 3 3 4 5 4 4 5 4 2 7 8 7 7 7 7 7 7 7 7 7 7 7 8 8 8 8 9 9 9 10 10 10 10
2 2 3 2 2 2 1 1 3 2 2 3 3 3 3 3 4 4 3 5 8 9 8 8 9 8 8 8 8 8 8 8 8 8 9 9 9 9 10 10 10 10 10
2 2 3 3 2 3 2 2 2 1 2 2 3 3 3 3 3 4 4 4 5 8 10 10 10 9 8 9 9 8 8 9 9 9 10 10 10 10 10 10 10 10 10
4 3 3 3 3 3 2 2 1 1 1 1 2 2 2 2 3 4 4 3 4 5 8 10 10 9 9 9 9 9 9 9 9 10 10 10 10 10 10 10 10 10 10
5 4 2 2 3 3 3 3 2 1 1 2 2 2 2 2 3 4 4 3 3 5 5 8 10 10 9 9 10 10 10 10 10 10 10 10 10 10 9 10 10 10 10
4 4 3 3 3 2 3 3 3 2 1 2 3 2 2 2 2 3 3 2 2 3 4 7 6 7 10 10 10 10 11 11 11 11 11 11 11 11 11 10 10 10 10
4 4 3 4 3 2 3 3 2 3 2 1 1 2 2 2 3 2 2 1 1 1 2 5 5 5 5 10 10 10 11 11 12 12 11 12 12 12 11 11 11 11 11
4 5 4 3 3 2 3 3 3 2 2 2 1 1 1 1 1 2 2 2 2 1 2 3 3 4 5 4 7 10 10 10 11 12 12 11 12 12 12 12 12 12 11
2 3 4 4 3 2 2 3 3 3 2 2 1 0 0 1 1 1 1 1 1 1 0 0 2 3 5 4 5 8 9 9 10 12 13 12 12 12 12 13 13 12 12
2 2 3 4 3 2 3 3 3 2 2 2 2 1 1 0 0 1 1 1 1 1 1 1 1 0 2 3 5 8 10 9 9 11 12 13 13 13 13 13 13 13 12
1 1 2 3 3 2 3 3 3 2 2 2 2 2 2 1 1 1 1 1 1 1 1 1 0 0 1 2 3 7 10 10 10 10 11 12 13 13 13 14 14 14 14
1 2 1 2 2 3 3 3 3 2 1 2 2 2 2 2 1 1 1 1 1 1 1 1 1 1 1 2 3 6 9 10 10 9 9 9 11 12 13 14 15 15 16
1 2 2 2 2 2 2 2 3 2 2 1 1 1 2 1 1 1 1 1 1 1 1 1 1 1 2 2 2 5 7 9 9 9 9 9 9 10 12 13 14 15 16
2 2 1 1 1 2 3 2 2 2 2 2 2 1 1 1 1 1 1 1 2 2 1 1 0 1 1 2 3 4 4 8 9 9 9 9 9 10 11 12 13 14 15
1 1 1 1 0 1 1 2 2 2 2 2 2 3 2 1 1 1 1 0 0 1 2 1 1 0 1 1 4 3 2 6 9 9 9 9 10 10 11 11 11 11 11
2 1 2 2 0 1 1 1 2 2 2 1 1 1 1 1 2 1 1 1 1 0 1 2 1 1 0 1 2 2 2 6 9 10 10 10 10 10 10 11 11 11 11
1 2 2 1 1 1 1 1 1 1 2 2 2 1 1 1 1 2 1 1 1 0 1 2 2 1 1 0 0 1 2 3 4 9 10 10 10 11 11 11 11 11 12
2 2 1 0 1 1 1 1 1 1 1 1 2 2 2 1 1 1 1 2 2 1 0 2 2 2 2 1 1 2 2 2 3 7 10 11 11 11 11 11 11 11 12
2 2 1 1 1 0 1 1 1 1 1 1 0 1 1 1 1 1 1 1 1 2 1 1 2 2 2 2 1 2 3 2 3 4 8 10 11 11 12 12 12 12 12
2 2 1 1 1 1 0 2 2 2 1 1 0 1 0 1 1 2 2 2 2 2 2 2 2 2 2 2 1 1 2 2 2 3 3 5 8 11 12 13 13 13 12
2 2 1 1 1 1 1 0 2 3 2 1 1 1 2 3 3 1 1 2 3 2 2 2 2 2 2 2 1 1 2 3 3 2 2 3 3 3 6 9 12 13 13
2 2 2 2 2 1 3 3 1 3 4 3 2 2 3 4 5 5 4 4 3 2 2 2 2 2 2 2 1 1 2 2 3 2 1 3 2 3 4 4 8 12 13
4 4 3 3 3 2 4 5 4 2 4 4 3 2 1 2 4 2 4 6 7 8 7 3 2 3 2 2 2 2 2 2 3 3 2 4 3 4 4 5 9 10 11
4 4 4 4 3 3 6 6 5 4 5 5 4 3 2 1 2 1 1 2 3 3 5 4 3 3 2 2 1 2 3 4 5 4 3 3 3 4 4 4 8 10 11
3 3 3 4 3 3 5 6 4 3 4 5 4 2 2 2 2 2 0 2 3 3 3 4 4 4 5 6 4 2 2 3 4 4 2 2 3 3 3 4 5 9 10
4 3 3 3 3 2 4 5 4 2 4 4 2 1 2 3 4 3 0 1 2 3 3 2 3 5 4 5 5 4 3 2 3 3 2 1 2 2 3 3 2 2 4
Wind_Direction
337 338 306 296 291 309 274 254 248 238 232 234 224 220 220 222 233 237 189 186 183 191 194 196 191 186 188 189 185 177 173 170 167 167 162 156 151 149 146 145 143 141 138
341 326 322 333 333 312 289 274 266 250 233 234 238 229 230 234 235 232 206 197 196 197 196 198 194 189 190 189 185 181 178 174 170 169 165 161 156 153 150 149 151 148 144
345 351 345 349 334 316 317 305 299 287 265 257 251 237 222 228 248 248 225 198 192 199 198 198 194 192 192 191 185 184 182 177 172 172 166 162 159 158 156 156 157 156 151
0 8 357 344 325 326 329 303 278 301 290 278 269 255 228 208 239 254 243 218 190 186 193 195 191 192 194 192 188 187 183 179 176 173 170 166 163 164 164 163 161 160 157
1 5 341 329 341 345 337 321 350 318 300 293 266 240 233 210 217 250 255 246 210 176 175 189 189 190 192 194 192 190 187 184 181 177 175 171 170 170 170 168 166 164 163
2 352 329 355 358 354 341 336 336 322 293 275 279 267 224 216 204 235 257 263 234 191 173 177 180 192 194 194 194 193 191 188 185 183 183 178 175 176 175 171 170 170 170
2 343 351 347 355 352 345 338 334 331 312 288 313 303 269 211 197 214 242 271 278 244 210 176 177 179 188 196 194 193 192 189 189 188 187 184 180 179 180 179 178 179 179
6 351 360 346 348 339 352 345 346 347 323 330 349 328 319 311 259 206 203 221 243 227 217 188 185 180 177 175 190 190 189 188 191 191 190 188 185 184 186 188 187 187 188
21 1 342 339 337 351 356 341 5 359 332 327 6 26 32 295 307 295 221 207 224 208 236 216 216 191 169 163 168 185 184 186 193 195 194 191 189 190 192 195 195 195 194
54 15 340 337 339 358 1 354 16 347 347 342 338 338 321 351 346 319 314 286 234 202 204 249 243 168 128 148 162 173 181 186 195 200 198 195 195 197 199 201 201 202 200
151 97 4 340 340 1 14 7 4 359 5 5 342 330 343 355 345 59 318 319 320 282 202 204 216 113 115 135 160 173 181 187 195 200 203 203 202 205 207 207 207 209 206
143 97 34 334 350 16 15 3 346 352 6 15 357 356 9 13 6 27 354 330 308 287 252 215 187 167 149 131 136 163 183 191 196 200 204 207 210 212 214 214 215 215 213
96 80 32 339 19 14 352 357 335 335 356 22 19 15 3 348 8 12 14 335 317 288 280 262 186 159 163 149 139 158 185 193 199 204 205 208 212 217 221 221 222 221 219
83 80 15 328 26 19 352 358 329 341 6 7 15 23 342 334 19 27 27 7 337 312 286 271 82 145 132 136 151 174 195 197 202 210 211 212 216 220 224 224 225 226 225
90 64 295 278 166 120 29 358 339 358 356 13 6 2 3 349 358 18 21 25 55 341 311 308 22 30 116 138 164 197 203 199 205 213 216 217 220 223 225 226 226 226 227
93 247 280 296 233 151 164 117 337 341 332 330 220 269 356 342 10 357 346 335 0 179 299 319 299 271 105 162 184 220 224 207 215 217 219 220 221 222 224 226 227 228 228
205 244 238 278 12 20 33 126 243 338 342 337 343 23 19 40 15 347 350 344 322 4 282 304 329 341 2 305 207 253 236 219 225 225 222 222 224 223 223 226 228 227 228
202 248 252 212 59 9 342 11 318 326 285 324 347 360 344 25 38 338 348 332 325 317 278 302 307 323 328 313 265 259 267 247 233 231 224 222 223 224 224 226 228 228 229
209 225 220 184 145 272 329 318 294 289 282 244 176 19 347 13 346 330 312 315 319 327 354 309 296 299 299 301 304 285 274 272 254 244 227 225 226 227 226 227 228 229 229
231 249 222 197 173 153 317 314 318 299 287 281 205 161 172 52 36 7 349 353 339 333 316 295 286 296 298 300 310 293 295 291 276 274 255 234 230 230 230 230 230 231 230
240 252 279 265 214 187 194 26 331 319 312 293 266 210 159 140 121 109 17 359 351 334 317 303 294 310 303 318 310 296 292 291 280 262 259 251 238 235 232 232 232 233 232
241 261 265 265 262 229 162 165 197 306 308 299 276 232 176 174 183 196 219 235 244 275 300 305 299 299 301 299 301 305 300 306 296 286 283 275 256 249 246 235 231 228 228
217 226 242 255 249 209 191 191 204 246 278 284 289 289 262 166 166 194 230 239 245 240 235 243 267 275 286 310 334 319 301 285 267 272 282 271 258 256 255 248 237 234 230
212 205 224 242 242 219 206 206 216 239 260 258 256 255 245 178 150 146 278 267 259 243 231 227 238 260 282 311 319 295 287 288 282 270 227 252 260 255 264 254 237 230 233
216 216 223 229 232 236 207 205 205 245 259 257 240 226 198 149 130 127 265 289 298 301 267 231 234 257 273 277 263 270 285 287 292 290 256 231 268 277 271 261 247 237 239
205 214 231 229 219 218 183 192 199 246 269 273 250 181 143 134 130 120 86 318 317 319 334 325 290 273 269 273 262 224 231 264 282 294 299 318 301 319 300 278 257 246 249